Regional Weather Roundup
Issued by NWS

Home | Current Version | Previous Version | Text Only | Print | Product List | Glossary Off
Versions: 1 2 3 4 5 6 7 8 9 10 11 12 13 14 15 16 17 18 19 20 21 22 23 24 25 26 27 28 29 30 31 32 33 34 35 36 37 38 39 40 41 42 43 44 45 46 47 48 49 50

000
ASUS43 KOAX 162310
RWRNE

WEATHER ROUNDUP FOR NEBRASKA
NATIONAL WEATHER SERVICE OMAHA NE
500 PM CST SAT DEC 16 2017

NOTES: SATELLITE DATA IS BEING USED TO AUGMENT CLOUD COVER ABOVE
       12000 FEET.
       "FAIR" INDICATES FEW OR NO CLOUDS BELOW 12,000 FEET WITH NO
       SIGNIFICANT WEATHER AND/OR OBSTRUCTIONS TO VISIBILITY.


NEZ001>004-019>022-054>056-170000-
NEBRASKA PANHANDLE

CITY           SKY/WX    TMP DP  RH WIND       PRES   REMARKS
SCOTTSBLUFF    CLOUDY    37  29  72 E12       29.90R WCI  29
ALLIANCE       CLOUDY    34  29  82 NE16      29.90R WCI  24
CHADRON        PTCLDY    36  27  69 NE10      29.94R WCI  28
GORDON         CLOUDY    35  29  80 NE12      29.92S WCI  26
KIMBALL        CLOUDY    36  26  67 NE10      29.86R WCI  29
SIDNEY         PTCLDY    37  27  67 NE13      29.87R WCI  29
$$

NEZ057>060-069>072-079>082-170000-
SOUTHWEST NEBRASKA

CITY           SKY/WX    TMP DP  RH WIND       PRES   REMARKS
NORTH PLATTE   CLEAR     41  29  62 NE15      29.88R
IMPERIAL       CLOUDY    43  28  55 NE17      29.84R
LEXINGTON      CLOUDY    44  30  57 NE13      29.87R
MCCOOK         CLEAR     47  29  49 NE16G28   29.82R
OGALLALA       CLOUDY    41  32  69 NE17      29.88R
$$

NEZ005>010-023>029-035>040-094-170000-
NORTH CENTRAL NEBRASKA

CITY           SKY/WX    TMP DP  RH WIND       PRES   REMARKS
VALENTINE      CLOUDY    39  31  72 NE9       29.94S WCI  33
AINSWORTH      CLOUDY    38  33  83 N10       29.94R WCI  31
BROKEN BOW     CLOUDY    41  31  67 N10       29.89R
O`NEILL        CLOUDY    39  34  83 N7        29.93R WCI  34
ORD            CLOUDY    40  32  73 N10       29.90R WCI  33
THEDFORD       CLOUDY    38  33  81 NE12G17   29.92R WCI  31
$$

NEZ041-046>049-061>064-073>077-083>087-170000-
SOUTH CENTRAL NEBRASKA

CITY           SKY/WX    TMP DP  RH WIND       PRES   REMARKS
GRAND ISLAND   CLOUDY    45  32  60 NE14      29.88R
AURORA         CLOUDY    44  30  57 NE12      29.87R
HASTINGS       CLEAR     47  30  51 NE16      29.85R
HEBRON         CLEAR     50  23  35 E3        29.85R
HOLDREGE       CLEAR     47  32  56 NE14      29.84R
KEARNEY        CLOUDY    45  30  55 NE17      29.86R
YORK           CLEAR     46  32  57 NE12      29.87S
$$

NEZ011>018-030>034-042>045-170000-
NORTHEAST NEBRASKA

CITY           SKY/WX    TMP DP  RH WIND       PRES   REMARKS
NORFOLK        PTCLDY    42  33  70 N13       29.91R
ALBION         PTCLDY    41  32  69 N6        29.92R
BLAIR          CLEAR     48  29  48 N6        29.90R
COLUMBUS       CLOUDY    44  30  57 N10       29.91R
FREMONT        CLOUDY    48  28  46 NE5       29.91R
TEKAMAH        CLOUDY    44  27  51 N8        29.91R
WAYNE          CLOUDY    41  32  70 N7        29.93R
$$

NEZ050>053-065>068-078-088>093-170000-
SOUTHEAST NEBRASKA

CITY           SKY/WX    TMP DP  RH WIND       PRES   REMARKS
LINCOLN        CLEAR     45  25  45 NE8       29.88R
OMAHA EPPLEY   PTCLDY    45  26  47 NW6       29.89R
BEATRICE       CLEAR     51  25  36 CALM      29.86R
FALLS CITY     CLEAR     51  25  36 E5        29.87R
NEBRASKA CITY  CLEAR     48  25  40 CALM      29.88R
PLATTSMOUTH    CLEAR     49  25  40 E3        29.87S
$$

NEZ044-045-051>053-067-170000-
OMAHA AREA

CITY           SKY/WX    TMP DP  RH WIND       PRES   REMARKS
OMAHA EPPLEY   PTCLDY    45  26  47 NW6       29.89R
BLAIR          CLEAR     48  29  48 N6        29.90R
FREMONT        CLOUDY    48  28  46 NE5       29.91R
MILLARD        CLEAR     51  29  42 CALM      29.89R
OFFUTT AFB     CLEAR     42  26  52 N6        29.87R
PLATTSMOUTH    CLEAR     49  25  40 E3        29.87S
WAHOO          FAIR      46  26  44 NE7       29.89R
$$




USA.gov is the U.S. government's official web portal to all federal, state and local government web resources and services.